• In Schweiz
  • Länderverzeichnis
  • Für 7 Tage
  • Wassertemperatur
  • Satellitenkarten
  • Wetterkarte
  • Widgets
  • user-avatar
    Anmelden

    Stündliche Wetter Lubumbaschi

    Heute, 23 September, Sonntag

    Zeit Temperatur Niederschläge Wind Luftdruck Luftfeuchtigkeit
    00:00 +30°C° 0 mm 1 m/S 719 mmHg 64%
    01:00 +30°C° 0 mm 1 m/S 719 mmHg 64%
    02:00 +29°C° 0 mm 2 m/S 719 mmHg 67%
    03:00 +29°C° 0 mm 2 m/S 718 mmHg 67%
    04:00 +29°C° 0 mm 2 m/S 718 mmHg 68%
    05:00 +29°C° 0 mm 1 m/S 718 mmHg 68%
    06:00 +30°C° 0 mm 2 m/S 718 mmHg 64%
    07:00 +30°C° 0 mm 2 m/S 719 mmHg 61%
    08:00 +31°C° 0 mm 2 m/S 719 mmHg 57%
    09:00 +34°C° 0 mm 3 m/S 719 mmHg 49%
    10:00 +36°C° 0 mm 4 m/S 720 mmHg 40%
    11:00 +39°C° 0 mm 5 m/S 720 mmHg 32%
    12:00 +40°C° 0 mm 5 m/S 719 mmHg 30%
    13:00 +41°C° 0 mm 5 m/S 718 mmHg 27%
    14:00 +42°C° 0 mm 5 m/S 718 mmHg 25%
    15:00 +41°C° 0 mm 4 m/S 718 mmHg 25%
    16:00 +41°C° 0 mm 4 m/S 717 mmHg 26%
    17:00 +40°C° 0 mm 4 m/S 717 mmHg 27%
    18:00 +38°C° 0 mm 4 m/S 717 mmHg 30%
    19:00 +38°C° 0 mm 4 m/S 718 mmHg 32%
    20:00 +37°C° 0 mm 4 m/S 718 mmHg 34%
    21:00 +36°C° 0 mm 3 m/S 718 mmHg 36%
    22:00 +35°C° 0 mm 3 m/S 718 mmHg 39%
    23:00 +34°C° 0 mm 3 m/S 719 mmHg 41%

    Morgen, 24 September, Montag

    Zeit Temperatur Niederschläge Wind Luftdruck Luftfeuchtigkeit
    00:00 +34°C° 0.2 mm 2 m/S 718 mmHg 45%
    01:00 +32°C° 0.2 mm 2 m/S 718 mmHg 48%
    02:00 +31°C° 0.2 mm 2 m/S 718 mmHg 51%
    03:00 +31°C° 0.1 mm 1 m/S 718 mmHg 52%
    04:00 +31°C° 0.1 mm 1 m/S 718 mmHg 54%
    05:00 +30°C° 0.1 mm 1 m/S 718 mmHg 56%
    06:00 +31°C° 0 mm 2 m/S 718 mmHg 54%
    07:00 +32°C° 0 mm 2 m/S 719 mmHg 51%
    08:00 +32°C° 0 mm 2 m/S 719 mmHg 49%
    09:00 +35°C° 0 mm 2 m/S 719 mmHg 45%
    10:00 +36°C° 0 mm 2 m/S 719 mmHg 40%
    11:00 +38°C° 0 mm 2 m/S 720 mmHg 36%
    12:00 +39°C° 0 mm 2 m/S 719 mmHg 34%
    13:00 +39°C° 0 mm 1 m/S 718 mmHg 31%
    14:00 +40°C° 0 mm 1 m/S 717 mmHg 29%
    15:00 +39°C° 0.1 mm 1 m/S 717 mmHg 31%
    16:00 +39°C° 0.1 mm 2 m/S 716 mmHg 33%
    17:00 +38°C° 0.1 mm 2 m/S 716 mmHg 34%
    18:00 +36°C° 4.1 mm 4 m/S 717 mmHg 43%
    19:00 +34°C° 4.1 mm 6 m/S 717 mmHg 52%
    20:00 +32°C° 4.1 mm 8 m/S 718 mmHg 61%
    21:00 +31°C° 2.8 mm 8 m/S 718 mmHg 58%
    22:00 +30°C° 2.8 mm 7 m/S 718 mmHg 56%
    23:00 +30°C° 2.8 mm 7 m/S 719 mmHg 53%

    übermorgen, 25 September, Dienstag

    Zeit Temperatur Niederschläge Wind Luftdruck Luftfeuchtigkeit
    00:00 +30°C° 0 mm 5 m/S 718 mmHg 50%
    01:00 +30°C° 0 mm 3 m/S 717 mmHg 48%
    02:00 +31°C° 0 mm 1 m/S 717 mmHg 45%
    03:00 +31°C° 0 mm 2 m/S 717 mmHg 45%
    04:00 +30°C° 0 mm 2 m/S 716 mmHg 44%
    05:00 +30°C° 0 mm 2 m/S 716 mmHg 44%
    06:00 +31°C° 0 mm 3 m/S 717 mmHg 43%
    07:00 +31°C° 0 mm 3 m/S 718 mmHg 43%
    08:00 +33°C° 0 mm 3 m/S 719 mmHg 43%
    09:00 +35°C° 0 mm 3 m/S 719 mmHg 40%
    10:00 +36°C° 0 mm 3 m/S 719 mmHg 37%
    11:00 +38°C° 0 mm 4 m/S 719 mmHg 34%
    12:00 +39°C° 0 mm 3 m/S 718 mmHg 32%
    13:00 +39°C° 0 mm 2 m/S 717 mmHg 30%
    14:00 +40°C° 0 mm 2 m/S 716 mmHg 28%
    15:00 +40°C° 0 mm 2 m/S 716 mmHg 28%
    16:00 +40°C° 0 mm 2 m/S 716 mmHg 28%
    17:00 +40°C° 0 mm 2 m/S 716 mmHg 28%
    18:00 +38°C° 0.1 mm 2 m/S 716 mmHg 32%
    19:00 +37°C° 0.1 mm 2 m/S 716 mmHg 36%
    20:00 +36°C° 0.1 mm 2 m/S 717 mmHg 39%
    21:00 +35°C° 0 mm 3 m/S 717 mmHg 44%
    22:00 +33°C° 0 mm 4 m/S 718 mmHg 48%
    23:00 +32°C° 0 mm 5 m/S 718 mmHg 53%

    26 September, Mittwoch

    Zeit Temperatur Niederschläge Wind Luftdruck Luftfeuchtigkeit
    00:00 +32°C° 0.1 mm 5 m/S 718 mmHg 56%
    01:00 +30°C° 0.1 mm 5 m/S 718 mmHg 59%
    02:00 +29°C° 0.1 mm 5 m/S 718 mmHg 61%
    03:00 +29°C° 0.7 mm 5 m/S 718 mmHg 64%
    04:00 +28°C° 0.7 mm 6 m/S 718 mmHg 66%
    05:00 +28°C° 0.7 mm 6 m/S 718 mmHg 69%
    06:00 +28°C° 0.1 mm 5 m/S 719 mmHg 67%
    07:00 +29°C° 0.1 mm 4 m/S 719 mmHg 66%
    08:00 +29°C° 0.1 mm 4 m/S 720 mmHg 64%
    09:00 +32°C° 0 mm 4 m/S 720 mmHg 57%
    10:00 +34°C° 0 mm 4 m/S 720 mmHg 50%
    11:00 +36°C° 0 mm 4 m/S 719 mmHg 42%
    12:00 +37°C° 0 mm 4 m/S 719 mmHg 38%
    13:00 +38°C° 0 mm 3 m/S 718 mmHg 35%
    14:00 +39°C° 0 mm 3 m/S 717 mmHg 31%
    15:00 +39°C° 0.1 mm 3 m/S 717 mmHg 31%
    16:00 +39°C° 0.1 mm 3 m/S 717 mmHg 31%
    17:00 +39°C° 0.1 mm 3 m/S 717 mmHg 32%
    18:00 +36°C° 4.7 mm 4 m/S 717 mmHg 41%
    19:00 +34°C° 4.7 mm 6 m/S 717 mmHg 51%
    20:00 +32°C° 4.7 mm 8 m/S 718 mmHg 60%
    21:00 +32°C° 4.8 mm 7 m/S 718 mmHg 59%
    22:00 +30°C° 4.8 mm 6 m/S 718 mmHg 58%
    23:00 +30°C° 4.8 mm 5 m/S 719 mmHg 57%

    27 September, Donnerstag

    Zeit Temperatur Niederschläge Wind Luftdruck Luftfeuchtigkeit
    00:00 +30°C° 0.1 mm 3 m/S 718 mmHg 57%
    01:00 +31°C° 0.1 mm 2 m/S 718 mmHg 56%
    02:00 +31°C° 0.1 mm 1 m/S 717 mmHg 55%
    03:00 +30°C° 0 mm 1 m/S 718 mmHg 54%
    04:00 +30°C° 0 mm 2 m/S 718 mmHg 53%
    05:00 +30°C° 0 mm 3 m/S 718 mmHg 52%
    06:00 +30°C° 0 mm 3 m/S 718 mmHg 53%
    07:00 +31°C° 0 mm 3 m/S 718 mmHg 53%
    08:00 +31°C° 0 mm 3 m/S 719 mmHg 53%
    09:00 +34°C° 0 mm 3 m/S 719 mmHg 48%
    10:00 +36°C° 0 mm 3 m/S 719 mmHg 43%
    11:00 +37°C° 0 mm 3 m/S 719 mmHg 37%
    12:00 +38°C° 0 mm 2 m/S 718 mmHg 35%
    13:00 +39°C° 0 mm 2 m/S 717 mmHg 32%
    14:00 +40°C° 0 mm 1 m/S 716 mmHg 29%
    15:00 +40°C° 0 mm 1 m/S 716 mmHg 29%
    16:00 +40°C° 0 mm 1 m/S 716 mmHg 28%
    17:00 +37°C° 0 mm 0 m/S 716 mmHg 28%
    18:00 +39°C° 0.1 mm 1 m/S 717 mmHg 31%
    19:00 +37°C° 0.1 mm 1 m/S 717 mmHg 35%
    20:00 +36°C° 0.1 mm 2 m/S 717 mmHg 38%
    21:00 +36°C° 0.3 mm 3 m/S 718 mmHg 41%
    22:00 +35°C° 0.3 mm 4 m/S 718 mmHg 44%
    23:00 +34°C° 0.3 mm 5 m/S 718 mmHg 47%

    28 September, Freitag

    Zeit Temperatur Niederschläge Wind Luftdruck Luftfeuchtigkeit
    00:00 +33°C° 0 mm 5 m/S 718 mmHg 50%
    01:00 +32°C° 0 mm 6 m/S 717 mmHg 53%
    02:00 +30°C° 0 mm 6 m/S 716 mmHg 55%
    03:00 +30°C° 0 mm 5 m/S 717 mmHg 56%
    04:00 +30°C° 0 mm 4 m/S 717 mmHg 57%
    05:00 +30°C° 0 mm 2 m/S 717 mmHg 57%
    06:00 +30°C° 0 mm 2 m/S 718 mmHg 55%
    07:00 +31°C° 0 mm 2 m/S 718 mmHg 52%
    08:00 +32°C° 0 mm 2 m/S 719 mmHg 50%
    09:00 +34°C° 0.1 mm 2 m/S 719 mmHg 45%
    10:00 +36°C° 0.1 mm 2 m/S 719 mmHg 41%
    11:00 +37°C° 0.1 mm 2 m/S 719 mmHg 37%
    12:00 +38°C° 0 mm 2 m/S 718 mmHg 34%
    13:00 +39°C° 0 mm 1 m/S 717 mmHg 32%
    14:00 +39°C° 0 mm 1 m/S 716 mmHg 30%
    15:00 +40°C° 0 mm 1 m/S 716 mmHg 29%
    16:00 +40°C° 0 mm 1 m/S 716 mmHg 28%
    17:00 +40°C° 0 mm 1 m/S 716 mmHg 28%
    18:00 +39°C° 0 mm 1 m/S 716 mmHg 31%
    19:00 +38°C° 0 mm 2 m/S 716 mmHg 33%
    20:00 +37°C° 0 mm 3 m/S 717 mmHg 36%
    21:00 +36°C° 0.8 mm 4 m/S 717 mmHg 42%
    22:00 +34°C° 0.8 mm 5 m/S 717 mmHg 47%
    23:00 +33°C° 0.8 mm 6 m/S 717 mmHg 53%
    Mehr zeigen